Time[GMT],air_temperature[C](-3m),wind_speed[m/s](-4m),wind_gust[m/s](-4m),visibility[m](-3m),barometric_pressure[millibars](-3m),wind_2_direction[degrees_true](-4m),wind_2_gust[m/s](-4m),wind_2_gust_1s[m/s](-4m),wind_2_min[m/s](-4m),wind_2_percent_good[m/s](-4m),wind_2_speed[m/s](-4m),wind_direction[degrees_true](-4m),wind_gust_1s[m/s](-4m),wind_min[m/s](-4m)
2007-03-27 00:00,2.3,,,2907,1025.27,210.50,4.70,,2.57,1.00,4.12,,,2.16
2007-03-27 01:00,2.5,,,2891,1024.78,217.60,5.03,,2.46,1.00,4.11,,,2.35
2007-03-27 02:00,2.6,,,2951,1023.79,220.60,5.86,,2.40,1.00,4.54,,,2.74
2007-03-27 03:00,2.7,,,2950,1024.04,238.40,7.88,,1.50,1.00,5.58,,,2.74
2007-03-27 04:00,1.6,,,2968,1022.87,192.40,6.21,,2.27,1.00,5.01,,,2.35
2007-03-27 05:00,1.6,,,2864,1022.20,179.60,6.79,,4.11,1.00,5.77,,,3.92
2007-03-27 06:00,1.6,,,2971,1021.16,164.10,7.43,,4.08,1.00,6.16,,,4.12
2007-03-27 07:00,1.7,,,2229,1019.87,166.20,8.09,,5.26,1.00,7.01,,,4.90
2007-03-27 08:00,1.9,,,2968,1018.15,176.10,11.41,,7.03,1.00,9.70,,,6.66
2007-03-27 09:00,1.4,,,2146,1017.17,174.00,11.42,,6.25,1.00,9.23,,,6.27
2007-03-27 10:00,1.6,,,1759,1016.25,161.50,10.01,,6.13,1.00,8.38,,,5.88
2007-03-27 12:00,2.3,,,2425,1014.30,159.70,9.32,,5.07,1.00,7.81,,,5.10
2007-03-27 13:00,2.5,,,2399,1013.81,150.60,8.39,,3.16,1.00,6.29,,,3.33
2007-03-27 14:00,3.0,,,2400,1013.07,146.10,6.52,,0.85,1.00,4.42,,,1.18
2007-03-27 15:00,2.3,,, 500,1012.15,108.20,5.13,,2.28,1.00,4.33,,,1.96
2007-03-27 16:00,1.9,,, 187,1011.30,112.50,4.35,,0.96,1.00,3.08,,,1.18
2007-03-27 17:00,2.0,,, 129,1011.12,84.40,3.61,,0.55,1.00,2.72,,,0.98
2007-03-27 18:00,2.1,,, 261,1010.57,82.40,3.76,,1.16,1.00,2.92,,,0.98
2007-03-27 19:00,1.9,,, 291,1010.44,55.10,2.91,,0.39,1.00,2.07,,,0.20
2007-03-27 20:00,2.0,,, 583,1010.14,54.90,4.96,,1.49,1.00,3.55,,,1.76
2007-03-27 21:00,1.9,,, 714,1010.63,32.66,4.79,,1.16,1.00,3.88,,,1.96
2007-03-27 22:00,1.5,,, 651,1010.75,41.87,6.25,,1.90,1.00,4.91,,,2.55
2007-03-27 23:00,1.5,,, 741,1011.60,20.64,5.77,,2.31,1.00,4.72,,,2.55
2007-03-28 00:00,1.4,,, 979,1012.22,17.70,7.13,,2.68,1.00,5.78,,,3.14
2007-03-28 01:00,1.4,,,1222,1012.46,21.20,6.22,,1.78,1.00,5.27,,,2.94
2007-03-28 02:00,1.5,,,2369,1013.19,352.92,7.43,,3.24,1.00,5.98,,,3.53
2007-03-28 03:00,1.6,,,2613,1012.77,357.57,6.05,,3.21,1.00,4.87,,,2.94
2007-03-28 04:00,1.5,,,2589,1012.71,337.90,5.60,,2.48,1.00,4.48,,,2.55
2007-03-28 05:00,1.6,,,2421,1013.07,327.70,6.10,,2.30,1.00,4.76,,,2.35
2007-03-28 06:00,1.8,,,2608,1013.32,321.10,6.95,,2.31,1.00,5.64,,,3.14
2007-03-28 07:00,1.8,,,2663,1012.52,316.10,5.02,,1.35,1.00,3.54,,,0.98
2007-03-28 08:00,1.9,,,2771,1012.22,295.30,4.84,,1.57,1.00,3.88,,,1.57
2007-03-28 09:00,2.2,,,2953,1012.15,282.10,6.21,,2.48,1.00,5.00,,,2.35
2007-03-28 10:00,2.5,,,2836,1011.73,273.70,6.90,,3.60,1.00,5.71,,,3.72
2007-03-28 11:00,3.1,,,2802,1011.97,278.00,9.17,,4.65,1.00,7.10,,,4.51
2007-03-28 12:00,3.3,,,2810,1012.40,284.10,8.04,,4.37,1.00,6.80,,,4.70
2007-03-28 13:00,3.9,,,2303,1012.77,305.80,10.32,,5.25,1.00,8.99,,,5.49
2007-03-28 14:00,4.1,,,2579,1012.95,301.50,8.46,,4.82,1.00,7.05,,,5.10
2007-03-28 15:00,3.2,,,2878,1012.89,316.90,8.51,,4.20,1.00,7.37,,,4.70
2007-03-28 16:00,3.3,,,2480,1012.52,302.00,10.70,,5.13,1.00,8.26,,,5.29
2007-03-28 17:00,3.1,,,2057,1012.52,308.40,11.71,,4.71,1.00,9.59,,,6.86
2007-03-28 18:00,3.0,,,2946,1012.34,309.00,12.72,,7.35,1.00,10.68,,,6.66
2007-03-28 19:00,2.9,,,2917,1012.28,311.60,11.25,,5.21,1.00,9.35,,,5.10
2007-03-28 20:00,3.0,,,2386,1012.22,315.00,13.39,,6.01,1.00,10.27,,,6.08
2007-03-28 21:00,2.9,,,2306,1012.03,311.00,12.20,,5.91,1.00,9.80,,,6.08
2007-03-28 22:00,2.8,,,2443,1011.97,313.00,11.65,,5.48,1.00,9.53,,,4.90
2007-03-28 23:00,2.9,,,2959,1011.73,308.20,11.94,,5.89,1.00,9.71,,,6.08
2007-03-29 00:00,3.0,,,2969,1012.15,304.90,13.17,,7.29,1.00,10.45,,,6.86
2007-03-29 01:00,3.1,,,2969,1012.71,322.40,15.28,,9.06,1.00,12.87,,,7.64
2007-03-29 03:00,1.5,,,2895,1014.05,348.58,14.54,,5.67,1.00,10.80,,,5.29
2007-03-29 04:00,0.5,,,2959,1014.48,336.30,17.00,,4.83,1.00,13.34,,,4.90
2007-03-29 05:00,0.2,,,2868,1014.54,343.50,17.33,,7.23,1.00,13.50,,,4.51
2007-03-29 06:00,0.1,,,2968,1014.79,341.70,14.88,,3.06,1.00,12.00,,,6.86
2007-03-29 07:00,-0.0,,,2950,1014.85,336.40,15.00,,4.76,1.00,11.65,,,7.25
2007-03-29 08:00,-0.2,,,2971,1014.85,332.00,14.28,,4.44,1.00,12.16,,,7.45
2007-03-29 09:00,-0.4,,,2971,1014.91,343.97,16.05,,6.39,1.00,12.49,,,6.27
2007-03-29 10:00,-0.5,,,2940,1015.28,337.90,15.43,,7.52,1.00,12.22,,,7.25
2007-03-29 11:00,-0.7,,,2968,1015.28,337.80,17.17,,8.25,1.00,13.57,,,7.84
2007-03-29 12:00,-0.5,,,2969,1015.46,339.90,15.90,,7.48,1.00,13.16,,,7.45
2007-03-29 13:00,-0.4,,,2961,1015.83,335.10,16.33,,8.30,1.00,13.93,,,7.06
2007-03-29 14:00,-0.5,,,2941,1016.32,334.90,16.13,,9.34,1.00,13.59,,,7.64
2007-03-29 15:00,-0.3,,,2890,1016.01,336.40,15.53,,2.70,1.00,12.75,,,7.84
2007-03-29 16:00,-0.3,,,2928,1015.89,332.60,15.06,,8.03,1.00,12.89,,,7.64
2007-03-29 17:00,0.0,,,2728,1015.52,331.90,15.36,,7.88,1.00,12.62,,,6.66
2007-03-29 18:00,0.3,,,2885,1015.21,332.70,15.48,,7.47,1.00,13.09,,,3.92
2007-03-29 19:00,0.8,,,2780,1015.46,330.40,14.07,,7.06,1.00,11.63,,,6.66
2007-03-29 20:00,1.5,,,2285,1015.46,332.00,13.59,,3.03,1.00,11.33,,,3.72
2007-03-29 21:00,1.8,,,2394,1015.64,334.50,11.18,,3.96,1.00,9.31,,,4.51
2007-03-29 22:00,2.0,,,1524,1015.95,329.80,10.51,,4.92,1.00,8.54,,,5.10
2007-03-29 23:00,2.2,,,2969,1016.62,329.50,9.85,,4.70,1.00,8.02,,,4.70
2007-03-30 00:00,2.5,,,2971,1017.72,330.90,8.73,,5.20,1.00,7.36,,,5.10
2007-03-30 01:00,3.0,,,2971,1018.34,340.30,11.43,,6.78,1.00,9.69,,,5.88
2007-03-30 03:00,2.9,,,2971,1018.70,341.80,10.89,,6.65,1.00,9.66,,,6.27
2007-03-30 04:00,2.7,,,2971,1018.89,340.60,11.35,,5.79,1.00,8.82,,,5.49
2007-03-30 05:00,2.6,,,2971,1019.01,341.00,9.51,,4.28,1.00,7.69,,,4.51
2007-03-30 06:00,2.5,,,2971,1019.01,339.90,9.25,,4.96,1.00,7.63,,,4.90
2007-03-30 07:00,2.5,,,2971,1018.77,340.00,9.83,,5.46,1.00,8.14,,,5.10
2007-03-30 08:00,2.3,,,2971,1018.58,335.10,8.17,,4.24,1.00,6.78,,,4.31
2007-03-30 09:00,2.2,,,2971,1018.52,328.10,7.33,,3.93,1.00,6.32,,,3.92
2007-03-30 10:00,2.1,,,2971,1018.52,327.20,7.51,,3.73,1.00,6.46,,,3.53
2007-03-30 11:00,2.1,,,2968,1018.95,325.70,6.82,,2.26,1.00,5.74,,,2.55
2007-03-30 12:00,2.0,,,2968,1018.77,315.60,5.34,,2.43,1.00,4.40,,,2.74
2007-03-30 13:00,2.0,,,2969,1019.50,303.70,5.99,,3.09,1.00,5.07,,,3.33
2007-03-30 14:00,2.1,,,2969,1019.32,302.60,6.86,,4.09,1.00,5.97,,,4.12
2007-03-30 15:00,2.3,,,2951,1018.70,306.40,6.50,,3.36,1.00,5.44,,,3.72
2007-03-30 16:00,2.4,,,2952,1017.97,302.20,6.00,,3.35,1.00,5.29,,,3.33
2007-03-30 17:00,2.5,,,2968,1016.74,288.80,9.24,,5.58,1.00,7.80,,,5.10
2007-03-30 18:00,2.8,,,2966,1016.07,278.70,8.26,,4.83,1.00,7.14,,,4.90
2007-03-30 19:00,3.0,,,2969,1015.09,275.60,8.71,,5.09,1.00,7.27,,,5.10
2007-03-30 20:00,3.0,,,2970,1013.93,260.60,7.16,,3.85,1.00,6.16,,,4.12
2007-03-30 21:00,3.5,,,2873,1013.38,275.30,9.35,,4.18,1.00,7.90,,,4.51
2007-03-30 22:00,3.6,,,2966,1013.13,273.40,9.16,,4.53,1.00,7.59,,,4.70
2007-03-30 23:00,3.5,,,2965,1012.71,272.90,8.54,,5.20,1.00,7.33,,,4.90
2007-03-31 00:00,3.6,,,2968,1012.52,276.90,8.83,,4.74,1.00,7.42,,,4.70
2007-03-31 01:00,4.0,,,2970,1013.13,297.20,9.52,,6.16,1.00,8.44,,,6.08
2007-03-31 03:00,3.8,,,2969,1013.26,318.20,8.96,,5.00,1.00,7.73,,,5.10
2007-03-31 04:00,3.7,,,2971,1013.38,310.50,10.91,,4.24,1.00,7.00,,,3.92
2007-03-31 05:00,3.7,,,2968,1013.62,328.40,10.89,,5.49,1.00,8.73,,,5.68
2007-03-31 06:00,3.1,,,2971,1014.11,344.76,11.90,,7.40,1.00,10.27,,,6.66
2007-03-31 07:00,2.3,,,2963,1014.72,357.18,11.30,,7.13,1.00,10.05,,,5.68
2007-03-31 08:00,1.6,,,2957,1015.46,357.76,13.12,,6.67,1.00,11.52,,,6.08
2007-03-31 09:00,1.0,,,2968,1016.38,355.15,12.82,,4.77,1.00,10.62,,,6.66
2007-03-31 10:00,0.6,,,2915,1017.23,352.73,13.05,,3.67,1.00,10.57,,,7.06
2007-03-31 11:00,0.6,,,2966,1018.40,352.48,12.86,,5.82,1.00,10.41,,,6.66
2007-03-31 12:00,0.4,,,2954,1019.20,345.62,12.28,,5.13,1.00,10.22,,,5.68
2007-03-31 13:00,-0.0,,,2957,1019.26,0.95,12.53,,6.53,1.00,10.69,,,6.27
2007-03-31 14:00,-0.1,,,2945,1019.75,339.30,11.97,,6.07,1.00,10.01,,,5.68
2007-03-31 15:00,-0.1,,,2947,1019.81,336.60,12.29,,6.32,1.00,10.02,,,6.08
2007-03-31 16:00,-0.2,,,2940,1019.62,333.80,12.84,,7.74,1.00,10.96,,,6.08
2007-03-31 17:00,-0.3,,,2837,1019.81,334.30,13.55,,7.34,1.00,11.44,,,7.25
2007-03-31 18:00,-0.0,,,2941,1019.99,330.00,12.90,,6.56,1.00,10.76,,,6.08
2007-03-31 19:00,0.3,,,2966,1020.11,324.00,12.22,,7.07,1.00,10.92,,,6.66
2007-03-31 21:00,1.0,,,2626,1020.36,323.10,10.59,,3.77,1.00,8.85,,,4.31
2007-03-31 22:00,1.4,,,2131,1020.85,313.20,9.84,,4.26,1.00,8.41,,,4.31
2007-03-31 23:00,1.4,,,2969,1020.67,307.60,9.26,,4.98,1.00,7.69,,,5.10
2007-04-01 00:00,1.7,,,2971,1021.34,296.30,7.22,,3.24,1.00,5.97,,,3.53
2007-04-01 01:00,1.8,,,2971,1021.83,285.70,6.27,,3.63,1.00,5.30,,,3.53
2007-04-01 02:00,2.1,,,2971,1022.02,277.50,7.92,,4.14,1.00,6.50,,,4.31
2007-04-01 03:00,2.3,,,2971,1022.02,264.50,6.15,,3.41,1.00,5.20,,,3.53
2007-04-01 04:00,2.3,,,2971,1021.77,258.80,6.98,,4.14,1.00,5.95,,,3.72
2007-04-01 05:00,2.5,,,2972,1021.95,269.10,8.53,,5.60,1.00,7.45,,,5.29
2007-04-01 06:00,2.8,,,2971,1021.95,280.60,11.22,,6.59,1.00,9.56,,,6.47
2007-04-01 07:00,2.9,,,2966,1021.71,286.60,9.92,,6.14,1.00,8.46,,,5.88
2007-04-01 08:00,2.5,,,2965,1021.65,297.20,7.66,,3.77,1.00,6.20,,,3.53
2007-04-01 09:00,2.5,,,2971,1022.38,343.42,8.13,,4.31,1.00,6.46,,,3.92
2007-04-01 10:00,1.9,,,2970,1023.24,24.84,6.35,,1.99,1.00,3.66,,,1.76
2007-04-01 11:00,1.9,,,2971,1023.73,21.62,4.32,,1.95,1.00,3.59,,,1.76
2007-04-01 12:00,1.9,,,2971,1024.53,5.80,4.52,,2.43,1.00,3.92,,,2.16
2007-04-01 13:00,1.7,,,2971,1025.02,3.71,2.94,,1.43,1.00,2.54,,,0.98
2007-04-01 14:00,1.7,,,2972,1025.39,322.50,2.33,,0.31,1.00,1.78,,,0.00
2007-04-01 15:00,1.9,,,2972,1025.64,308.70,3.10,,1.44,1.00,2.71,,,1.37
2007-04-01 16:00,1.9,,,2971,1025.51,300.60,3.82,,1.62,1.00,3.17,,,1.76
2007-04-01 17:00,2.2,,,2972,1025.27,288.70,4.16,,1.95,1.00,3.38,,,1.57
2007-04-01 18:00,2.2,,,2972,1025.02,300.90,5.60,,3.01,1.00,4.74,,,2.94
2007-04-01 19:00,2.2,,,2972,1024.84,297.30,4.69,,2.54,1.00,4.16,,,2.74
2007-04-01 20:00,2.3,,,2972,1024.72,295.10,4.73,,2.66,1.00,4.15,,,2.74
2007-04-01 21:00,2.4,,,2972,1024.47,302.10,3.38,,1.80,1.00,2.89,,,1.57
2007-04-01 22:00,2.7,,,2754,1024.90,291.20,3.65,,1.67,1.00,2.87,,,1.57
2007-04-01 23:00,2.3,,,2971,1025.02,314.40,2.07,,0.35,1.00,1.40,,,0.00
2007-04-02 00:00,2.1,,,2971,1025.15,288.50,1.78,,0.15,1.00,0.94,,,0.00
2007-04-02 01:00,1.7,,,2971,1025.08,202.00,1.60,,0.34,1.00,1.27,,,0.00
2007-04-02 02:00,1.4,,,2971,1024.78,197.80,2.24,,1.05,1.00,2.04,,,0.78
2007-04-02 03:00,1.3,,,2971,1024.53,188.20,2.31,,1.62,1.00,2.19,,,0.98
2007-04-02 04:00,1.4,,,2971,1024.16,180.90,2.92,,2.04,1.00,2.73,,,1.57
2007-04-02 05:00,1.6,,,2972,1024.04,191.60,2.93,,1.91,1.00,2.56,,,1.57
2007-04-02 06:00,1.7,,,2971,1023.55,182.30,2.57,,1.61,1.00,2.26,,,0.98
2007-04-02 07:00,1.7,,,2971,1023.24,176.30,2.86,,1.39,1.00,2.46,,,0.98
2007-04-02 08:00,1.6,,,2971,1022.63,140.10,3.78,,2.15,1.00,3.16,,,1.96
2007-04-02 09:00,1.7,,,2971,1022.02,176.80,4.69,,2.87,1.00,3.99,,,2.16
2007-04-02 10:00,1.8,,,2971,1022.08,167.90,4.91,,3.08,1.00,4.06,,,2.55
2007-04-02 11:00,1.8,,,2923,1022.14,137.60,4.74,,2.95,1.00,4.19,,,2.94
2007-04-02 12:00,1.8,,,2955,1021.77,136.70,5.58,,3.71,1.00,4.88,,,3.53
2007-04-02 13:00,1.6,,,2890,1021.95,141.40,4.75,,2.68,1.00,3.82,,,2.35
2007-04-02 14:00,1.7,,,2971,1021.71,133.50,6.00,,4.23,1.00,5.36,,,3.72
2007-04-02 15:00,1.8,,,2972,1021.10,133.20,7.35,,4.91,1.00,6.34,,,4.70
2007-04-02 16:00,1.6,,,2937,1020.67,112.70,5.85,,3.33,1.00,5.01,,,3.53
2007-04-02 17:00,1.4,,,2852,1020.30,105.10,8.13,,4.32,1.00,6.97,,,4.70
2007-04-02 18:00,1.3,,,2877,1020.05,90.00,9.09,,5.67,1.00,7.84,,,5.49
2007-04-02 19:00,1.3,,,2894,1019.20,94.40,10.75,,6.67,1.00,9.20,,,6.47
2007-04-02 20:00,1.3,,,2657,1018.70,94.50,11.37,,5.86,1.00,9.74,,,6.08
2007-04-02 21:00,1.1,,,2094,1018.34,92.90,11.39,,5.12,1.00,9.16,,,5.88
2007-04-02 22:00,1.2,,,2331,1018.58,92.90,11.87,,4.78,1.00,8.94,,,5.68
2007-04-02 23:00,1.2,,,2157,1018.21,94.30,11.20,,5.36,1.00,9.63,,,6.47
2007-04-03 00:00,1.2,,,2673,1018.77,92.60,12.56,,5.94,1.00,10.14,,,7.25
2007-04-03 01:00,1.1,,,2707,1018.77,91.40,12.79,,6.02,1.00,10.76,,,8.04
2007-04-03 02:00,1.1,,,2808,1018.70,91.40,12.86,,4.60,1.00,10.53,,,6.08
2007-04-03 03:00,1.2,,,2815,1019.26,93.30,11.79,,5.85,1.00,9.85,,,6.86
2007-04-03 04:00,1.1,,,2838,1019.32,87.70,12.48,,3.17,1.00,9.99,,,6.86
2007-04-03 05:00,1.0,,,2819,1019.56,85.30,13.32,,3.70,1.00,10.06,,,4.90
2007-04-03 06:00,0.6,,,2503,1019.38,86.40,12.43,,7.15,1.00,10.69,,,6.86
2007-04-03 07:00,0.4,,,2322,1018.83,90.50,13.47,,6.88,1.00,10.92,,,7.06
2007-04-03 08:00,0.6,,,2807,1018.46,89.50,14.55,,8.12,1.00,11.71,,,6.86
2007-04-03 09:00,0.6,,,2279,1018.89,83.00,12.74,,7.15,1.00,10.67,,,6.47
2007-04-03 10:00,0.5,,,2366,1019.01,82.40,12.68,,5.93,1.00,10.34,,,4.70
2007-04-03 12:00,0.3,,,2008,1019.50,84.40,12.42,,5.87,1.00,10.43,,,7.06
2007-04-03 13:00,0.2,,,2388,1019.75,79.60,12.87,,3.20,1.00,10.33,,,4.90
2007-04-03 15:00,-0.0,,,2488,1020.36,83.80,14.49,,4.78,1.00,10.72,,,7.25
2007-04-03 16:00,-0.2,,,2781,1020.67,74.10,11.28,,5.55,1.00,9.25,,,5.29
2007-04-03 17:00,-0.4,,,2067,1020.61,72.00,13.61,,6.85,1.00,11.77,,,6.08
2007-04-03 18:00,-0.5,,,2343,1020.61,68.10,14.16,,5.12,1.00,11.04,,,6.66
2007-04-03 19:00,-0.7,,,2700,1020.79,64.60,14.46,,8.26,1.00,11.55,,,7.84
2007-04-03 20:00,-0.6,,,2465,1021.10,64.20,12.16,,7.33,1.00,10.66,,,7.25
2007-04-03 21:00,-0.7,,,2972,1021.46,65.30,13.55,,4.96,1.00,11.10,,,7.64
2007-04-03 22:00,-0.0,,,2831,1021.83,57.10,13.33,,7.01,1.00,10.91,,,6.27
2007-04-04 00:00,0.0,,,2900,1022.20,62.00,11.80,,2.38,1.00,9.68,,,5.88
2007-04-04 01:00,-0.1,,,2903,1022.63,67.10,11.50,,4.57,1.00,9.24,,,5.68
2007-04-04 02:00,-0.2,,,2928,1022.57,73.90,10.24,,4.73,1.00,8.70,,,5.10
2007-04-04 03:00,-0.2,,,2947,1022.02,73.20,10.04,,5.44,1.00,8.51,,,6.27
2007-04-04 04:00,-0.2,,,2960,1021.77,68.70,9.24,,4.61,1.00,7.86,,,4.12
2007-04-04 05:00,-0.1,,,2969,1022.38,63.60,7.92,,3.55,1.00,6.88,,,3.33
2007-04-04 06:00,0.0,,,2971,1021.22,66.10,9.53,,5.46,1.00,8.24,,,5.29
2007-04-04 07:00,0.0,,,2971,1021.71,63.50,7.99,,4.02,1.00,6.92,,,3.53
2007-04-04 08:00,0.1,,,2971,1021.28,57.60,8.20,,3.98,1.00,6.85,,,4.31
2007-04-04 09:00,0.0,,,2962,1021.03,54.60,9.05,,4.49,1.00,7.57,,,4.12
2007-04-04 10:00,-0.0,,,2971,1021.03,65.60,9.56,,4.52,1.00,7.66,,,4.90
2007-04-04 11:00,-0.0,,,2913,1021.03,64.80,9.02,,4.22,1.00,7.40,,,4.70
2007-04-04 12:00,-0.1,,,2939,1021.10,65.20,8.65,,5.10,1.00,7.56,,,4.70
2007-04-04 13:00,-0.2,,,2960,1020.97,70.80,8.24,,4.42,1.00,6.76,,,3.53
2007-04-04 14:00,-0.3,,,2939,1020.79,69.90,8.97,,4.64,1.00,6.80,,,4.51
2007-04-04 15:00,-0.4,,,2960,1020.24,74.50,7.85,,3.58,1.00,6.04,,,3.33
2007-04-04 16:00,-0.4,,,2969,1019.81,77.30,7.22,,3.44,1.00,5.57,,,2.16
2007-04-04 17:00,-0.5,,,2968,1018.52,80.30,7.04,,3.52,1.00,5.87,,,2.94
2007-04-04 18:00,-0.7,,,2908,1017.54,82.50,8.13,,4.70,1.00,6.91,,,4.12
2007-04-04 19:00,-1.0,,,2927,1016.99,79.40,7.12,,4.01,1.00,6.00,,,3.33
2007-04-04 20:00,-1.0,,,2960,1016.56,86.80,7.81,,3.72,1.00,6.22,,,3.33
2007-04-04 21:00,-1.1,,,2959,1016.44,110.00,5.92,,2.54,1.00,4.97,,,1.96
2007-04-04 22:00,-1.1,,,2972,1016.74,101.00,4.52,,0.41,1.00,3.01,,,0.00
2007-04-04 23:00,-1.1,,,2972,1015.40,91.20,5.59,,2.36,1.00,4.50,,,1.57
2007-04-05 00:00,-1.1,,,2972,1014.30,87.60,7.09,,3.75,1.00,5.93,,,3.33
2007-04-05 01:00,-1.1,,,2972,1014.42,97.80,6.71,,4.11,1.00,5.75,,,3.33
2007-04-05 02:00,-1.1,,,2915,1013.68,108.60,6.83,,3.88,1.00,5.90,,,3.14
2007-04-05 03:00,-1.0,,,2972,1012.95,107.50,8.35,,4.96,1.00,7.33,,,4.51
2007-04-05 04:00,-0.9,,,2972,1010.93,107.30,10.79,,6.07,1.00,8.79,,,5.88
2007-04-05 05:00,-0.5,,,2972,1009.40,104.50,12.07,,6.47,1.00,9.41,,,6.47
2007-04-05 06:00,-0.1,,,2968,1007.33,102.10,13.52,,5.94,1.00,10.58,,,7.06
2007-04-05 07:00,0.5,,,2967,1006.90,115.70,12.83,,7.03,1.00,10.62,,,6.66
2007-04-05 08:00,0.8,,,2971,1005.68,112.20,13.30,,6.84,1.00,11.11,,,6.86
2007-04-05 09:00,0.9,,,2947,1004.64,107.30,13.98,,8.43,1.00,11.87,,,8.43
2007-04-05 10:00,0.8,,,2534,1003.85,103.60,13.86,,7.32,1.00,11.73,,,6.66
2007-04-05 11:00,0.9,,,1892,1002.08,105.40,14.65,,2.10,1.00,11.93,,,8.23
2007-04-05 12:00,1.4,,,1439,1000.31,111.90,16.57,,1.90,1.00,12.46,,,8.43
2007-04-05 13:00,2.0,,,2292,998.54,113.90,15.71,,3.83,1.00,12.77,,,6.86
2007-04-05 14:00,2.4,,, 812,997.14,115.60,13.99,,7.75,1.00,11.99,,,7.84
2007-04-05 15:00,3.1,,,1755,996.35,133.00,13.63,,6.67,1.00,11.31,,,7.06
2007-04-05 16:00,3.4,,,1800,995.25,141.20,11.47,,6.77,1.00,9.60,,,6.47
2007-04-05 17:00,3.5,,, 550,995.19,178.30,9.13,,3.88,1.00,6.64,,,4.31
2007-04-05 18:00,3.6,,,2065,995.25,238.00,10.03,,3.59,1.00,8.36,,,4.90
2007-04-05 20:00,3.8,,,2840,996.17,256.90,11.05,,4.39,1.00,9.09,,,5.10
2007-04-05 21:00,3.4,,,2900,996.90,265.50,13.25,,5.31,1.00,10.19,,,7.06
2007-04-05 22:00,3.2,,,2919,997.69,262.50,11.27,,4.41,1.00,9.87,,,5.49
2007-04-05 23:00,3.0,,,2936,998.67,265.40,14.76,,2.42,1.00,10.54,,,6.47
2007-04-06 00:00,3.0,,,2960,999.15,264.40,12.71,,5.29,1.00,10.25,,,5.10
2007-04-06 01:00,2.9,,,2960,999.94,261.30,11.93,,5.91,1.00,10.23,,,5.10
2007-04-06 02:00,2.9,,,2965,1000.31,259.00,11.35,,4.95,1.00,8.64,,,4.70
2007-04-06 03:00,3.3,,,2944,1000.80,253.70,12.64,,5.13,1.00,8.97,,,4.31
2007-04-06 04:00,2.9,,,2894,1001.16,241.00,9.87,,4.80,1.00,7.81,,,4.31
2007-04-06 05:00,0.8,,,1972,1001.65,271.80,11.41,,4.72,1.00,8.75,,,3.92
2007-04-06 06:00,2.2,,,2962,1001.35,256.90,7.97,,4.08,1.00,6.80,,,3.53
2007-04-06 07:00,2.5,,,2932,1001.71,268.00,9.53,,3.89,1.00,7.85,,,3.92
2007-04-06 08:00,2.2,,,2970,1002.02,270.20,11.04,,4.29,1.00,8.46,,,4.70
2007-04-06 09:00,2.0,,,2971,1002.44,264.40,10.22,,3.72,1.00,8.45,,,4.70
2007-04-06 10:00,2.0,,,2950,1002.93,256.60,12.08,,1.79,1.00,9.77,,,6.27
2007-04-06 11:00,1.9,,,2661,1003.79,245.60,14.05,,6.57,1.00,11.02,,,6.86
2007-04-06 12:00,1.5,,,2971,1004.09,254.10,15.95,,3.26,1.00,11.09,,,6.27
2007-04-06 14:00,1.3,,,2953,1004.95,255.10,13.76,,7.61,1.00,11.19,,,5.88
2007-04-06 15:00,1.4,,,2919,1005.37,250.50,15.49,,8.41,1.00,12.90,,,7.84
2007-04-06 16:00,0.9,,,2949,1005.80,255.50,14.90,,5.90,1.00,10.52,,,5.49
2007-04-06 17:00,1.3,,,2950,1005.92,249.80,12.07,,6.41,1.00,10.32,,,5.88
2007-04-06 18:00,1.4,,,2958,1005.92,249.80,12.76,,3.58,1.00,10.00,,,5.29
2007-04-06 19:00,1.3,,,2963,1006.29,252.50,11.22,,3.81,1.00,9.09,,,4.70
2007-04-06 20:00,1.5,,,2929,1006.72,245.30,12.00,,4.27,1.00,8.69,,,4.51
2007-04-06 21:00,1.6,,,2973,1007.02,256.40,10.15,,3.57,1.00,8.22,,,4.70
2007-04-06 22:00,1.9,,,2972,1007.33,243.50,10.07,,4.93,1.00,8.10,,,4.70
2007-04-06 23:00,1.9,,,2971,1007.39,242.00,10.59,,4.61,1.00,8.74,,,4.51
2007-04-07 00:00,2.0,,,2972,1007.88,241.40,9.65,,4.66,1.00,7.95,,,4.51
2007-04-07 01:00,1.9,,,2971,1008.43,247.90,8.71,,2.74,1.00,6.75,,,3.33
2007-04-07 02:00,2.1,,,2972,1008.49,246.20,8.13,,3.20,1.00,6.42,,,3.14
2007-04-07 03:00,2.4,,,2972,1008.00,241.60,9.66,,3.43,1.00,7.23,,,3.33
2007-04-07 04:00,2.1,,,2972,1007.88,258.60,6.32,,1.82,1.00,4.53,,,1.57
2007-04-07 05:00,2.4,,,2972,1007.63,248.00,7.72,,3.25,1.00,6.19,,,3.14
2007-04-07 06:00,2.4,,,2972,1007.20,245.40,6.95,,3.85,1.00,6.09,,,3.72
2007-04-07 07:00,2.2,,,2971,1006.78,232.30,5.13,,1.82,1.00,4.21,,,1.76
2007-04-07 08:00,1.9,,,2971,1006.59,242.90,3.27,,0.95,1.00,2.62,,,0.00
2007-04-07 09:00,1.8,,,2971,1006.72,216.90,3.19,,0.26,1.00,2.63,,,0.20
2007-04-07 10:00,1.9,,,2971,1006.78,313.20,3.77,,1.17,1.00,2.77,,,0.39
2007-04-07 11:00,1.4,,,2971,1006.72,356.99,2.35,,0.05,1.00,1.79,,,0.00
2007-04-07 12:00,1.2,,,2971,1006.59,61.10,1.81,,0.18,1.00,1.40,,,0.00
2007-04-07 13:00,0.9,,,2650,1006.11,73.50,4.16,,1.58,1.00,3.09,,,0.78
2007-04-07 14:00,0.5,,,2970,1005.25,71.70,5.31,,2.25,1.00,4.19,,,1.76
2007-04-07 15:00,0.7,,,2948,1004.95,93.30,3.86,,0.33,1.00,1.95,,,0.00
2007-04-07 16:00,0.7,,,2967,1003.42,69.00,3.95,,0.74,1.00,2.95,,,0.59
2007-04-07 17:00,0.4,,,2914,1002.32,42.00,5.38,,2.01,1.00,4.32,,,1.76
2007-04-07 18:00,-0.0,,, 928,1000.07,43.66,9.66,,3.49,1.00,6.80,,,3.33
2007-04-07 19:00,-0.3,6.1,8.0,2971,998.60,,,,,0.15,,47.93,,3.33
2007-04-07 20:00,-0.2,7.7,9.4,2920,997.14,,,,,0.00,,45.27,,5.10
2007-04-07 22:00,-0.2,7.9,10.1,  95,994.65,,,,,0.00,,25.86,,5.29
2007-04-08 00:00,-0.2,9.2,11.8,2972,993.25,,,,,0.00,,349.87,,6.66
2007-04-08 02:00,-0.2,,,1793,993.12,315.00,13.66,,3.20,1.00,10.58,,,7.06
2007-04-08 04:00,-0.2,,, 592,993.49,315.20,14.41,,7.11,1.00,11.54,,,7.45
2007-04-08 05:00,-0.2,,, 506,994.40,308.50,15.77,,6.11,1.00,11.60,,,6.66
2007-04-08 06:00,-0.3,,,1082,995.99,306.30,13.85,,7.19,1.00,11.47,,,5.68
2007-04-08 07:00,-0.2,,, 412,997.14,300.90,15.60,,5.49,1.00,11.03,,,6.66
2007-04-08 08:00,-0.1,,, 916,998.30,290.90,15.16,,4.91,1.00,11.45,,,6.27
2007-04-08 09:00,0.1,,,2956,999.82,299.60,12.43,,5.03,1.00,9.43,,,5.49
2007-04-08 10:00,0.3,,,2946,1000.74,288.50,11.88,,2.56,1.00,6.32,,,3.14
2007-04-08 11:00,-0.2,,,2972,1001.71,276.30,13.32,,5.59,1.00,10.52,,,5.88
2007-04-08 12:00,0.4,,,2512,1002.32,279.60,12.14,,3.42,1.00,9.22,,,5.88
2007-04-08 13:00,-0.0,,,2778,1002.87,278.50,13.09,,5.32,1.00,9.86,,,5.49
2007-04-08 14:00,0.6,,,2685,1003.54,272.20,12.80,,5.06,1.00,10.26,,,6.27
2007-04-08 15:00,0.5,,,2874,1003.60,260.30,15.09,,7.56,1.00,11.99,,,5.49
2007-04-08 16:00,0.2,,,2685,1003.79,261.30,16.87,,8.02,1.00,13.16,,,6.47
2007-04-08 17:00,1.2,,,2890,1003.79,250.60,18.03,,8.76,1.00,13.20,,,7.64
2007-04-08 18:00,1.3,,,2870,1003.66,253.50,17.48,,9.05,1.00,14.02,,,8.23
2007-04-08 19:00,1.4,,,2962,1003.60,255.50,15.97,,8.52,1.00,13.20,,,7.06
2007-04-08 20:00,1.4,,,2964,1003.54,265.10,16.13,,8.08,1.00,13.17,,,7.25
2007-04-08 21:00,1.1,,,2916,1003.85,252.10,14.28,,7.31,1.00,11.37,,,7.25
2007-04-08 22:00,1.5,,,2886,1004.21,264.30,14.38,,8.21,1.00,12.25,,,7.25
2007-04-08 23:00,1.7,,,2972,1004.34,253.20,13.77,,4.46,1.00,10.42,,,5.10
2007-04-09 00:00,2.2,,,2972,1004.82,263.10,14.22,,6.50,1.00,11.23,,,5.49
2007-04-09 01:00,2.5,,,2971,1005.19,259.00,13.95,,5.60,1.00,10.90,,,5.49
2007-04-09 02:00,2.7,,,2971,1004.95,258.10,15.91,,4.83,1.00,11.30,,,6.27
2007-04-09 03:00,2.4,,,2906,1004.70,264.20,18.13,,7.79,1.00,13.70,,,6.08
2007-04-09 04:00,2.4,,,2861,1004.76,270.40,11.79,,5.49,1.00,9.94,,,4.90
2007-04-09 05:00,2.3,,,2926,1004.27,270.20,11.48,,5.20,1.00,8.85,,,4.90
2007-04-09 06:00,2.5,,,2913,1004.21,268.30,11.98,,5.70,1.00,9.33,,,5.10
2007-04-09 07:00,2.5,,,2968,1003.91,269.00,14.78,,7.03,1.00,10.96,,,6.66
2007-04-09 08:00,2.2,,,2963,1003.85,263.60,16.19,,4.57,1.00,9.74,,,4.51
2007-04-09 09:00,1.7,,,2950,1003.97,267.70,15.77,,7.92,1.00,12.21,,,5.29
2007-04-09 10:00,2.4,,,2966,1003.97,272.00,15.98,,6.08,1.00,12.37,,,7.84
2007-04-09 11:00,2.6,,,2708,1004.46,269.00,14.95,,8.72,1.00,12.69,,,7.45
2007-04-09 12:00,2.5,,,2715,1005.07,264.40,13.80,,7.80,1.00,11.35,,,6.08
2007-04-09 13:00,2.6,,,2743,1005.31,264.30,15.17,,6.62,1.00,12.19,,,4.51
2007-04-09 14:00,2.6,,,2787,1005.37,271.00,15.85,,7.04,1.00,12.65,,,5.88
2007-04-09 15:00,2.7,,,2755,1005.56,273.20,15.01,,6.82,1.00,12.02,,,6.47
2007-04-09 16:00,2.7,,,2836,1005.68,270.70,14.09,,6.02,1.00,11.30,,,5.68
2007-04-09 17:00,2.8,,,2701,1005.62,273.50,13.66,,5.40,1.00,11.51,,,5.10
2007-04-09 18:00,2.8,,,2751,1006.04,269.70,13.09,,6.18,1.00,10.47,,,4.70
2007-04-09 19:00,2.8,,,2766,1006.23,273.00,11.40,,6.33,1.00,9.41,,,5.88
2007-04-09 20:00,,,,,,,,,,27.77,,,,
2007-04-09 21:00,3.1,,,2849,1006.78,275.20,10.61,,5.09,1.00,8.50,,,4.31
2007-04-09 22:00,3.0,,,2705,1007.33,274.80,9.28,,4.42,1.00,7.98,,,4.70
2007-04-09 23:00,2.9,,,2939,1007.94,269.50,9.81,,4.35,1.00,7.58,,,3.72
2007-04-10 00:00,2.9,,,2959,1008.55,261.30,8.25,,4.00,1.00,6.72,,,3.53
2007-04-10 01:00,3.0,,,2944,1009.16,264.90,8.07,,3.62,1.00,6.85,,,3.33
2007-04-10 02:00,2.9,,,2952,1009.53,274.20,8.04,,3.28,1.00,6.18,,,2.94